Regional Weather Roundup
Issued by NWS Nashville, TN

Home | Current Version | Previous Version | Text Only | Print | Product List | Glossary On
Versions: 1 2 3 4 5 6 7 8 9 10 11 12 13 14 15 16 17 18 19 20 21 22 23 24 25 26 27 28 29 30 31 32 33 34 35 36 37 38 39 40 41 42 43 44 45 46 47 48 49 50
000
ASUS44 KOHX 012215
RWROHX
MIDDLE TENNESSEE HOURLY WEATHER ROUNDUP
NATIONAL WEATHER SERVICE NASHVILLE TN
400 PM CST SUN FEB 01 2015

NOTE: "FAIR" INDICATES FEW OR NO CLOUDS BELOW 12,000 FEET WITH
NO SIGNIFICANT WEATHER AND/OR OBSTRUCTIONS TO VISIBILITY.

* THESE REPORTS ARE NOT UNDER NWS QUALITY CONTROL AND MAY NOT
  REPORT WEATHER SUCH AS PRECIPITATION AND FOG.


TNZ005>011-023>034-057-059-062>066-078-080-012300
...NORTHERN MIDDLE TENNESSEE...

CITY           SKY/WX    TMP DP  RH WIND       PRES   REMARKS
CLARKSVILLE    LGT RAIN  53  51  93 SW6       29.65R FOG
CROSSVILLE     CLOUDY    47  44  90 S10G29    29.77F
GALLATIN       CLOUDY    51  51 100 SW8G18    29.69F
DICKSON        CLOUDY    52  52 100 S13       29.64F
LEBANON        CLOUDY    52  51  96 S15       29.67F
LIVINGSTON     CLOUDY    50  48  92 SW14      29.72F
NASHVILLE      LGT RAIN  54  52  93 S21       29.68F
WEST NASHVILLE CLOUDY    52  52 100 S12       29.66F
PORTLAND       CLOUDY    48  48 100 S18       29.65F
SMYRNA         LGT RAIN  54  52  94 S13       29.70F FOG
SPARTA         CLOUDY    50  48  93 S8        29.72F
$$
TNZ056-058-060-061-075>077-079-093>097-012300
...SOUTHERN MIDDLE TENNESSEE...

CITY           SKY/WX    TMP DP  RH WIND       PRES   REMARKS
COLUMBIA       CLOUDY   N/A N/A N/A S14       29.68F
LEWISBURG      CLOUDY    54  53  96 S12       29.71F
MCMINNVILLE    CLOUDY    54  54 100 S10       29.73F
MURFREESBORO   CLOUDY    52  51  96 S13       29.70F
SHELBYVILLE    CLOUDY    54  54 100 S15       29.73F
TULLAHOMA        N/A     52  50  93 S12       29.75F
WINCHESTER     CLOUDY    52  50  93 S17       29.77F
$$


...KEY TO REMARKS...
VSB - VISIBILITY IN MILES
WCI - WIND CHILL INDEX
HX  - HEAT INDEX



USA.gov is the U.S. government's official web portal to all federal, state and local government web resources and services.